Overview Statistics Trail Chart Weather Telemetry Raw packets
 

This is the latest recevied weather packets stored in our database for station/object 4S6DRJ-13. If no packets are shown the sender has not sent any weather packets the latest 10 day(s).

<< 504 505 506 507 508 509 510 >>
Time Temp. Humidity Pressure Rain* Wind** Luminosity Snow
1787679497 27.22° C 89% 1012 hPa 0 mm 0.89 m/s, 295° 0 W/m² -
1787679436 27.22° C 89% 1012 hPa 0 mm 0.89 m/s, 198° 0 W/m² -
1787679375 27.22° C 89% 1012.1 hPa 0 mm 0.45 m/s, 220° 0 W/m² -
1787679315 27.22° C 89% 1012 hPa 0 mm 0.89 m/s, 205° 0 W/m² -
1787679253 27.22° C 89% 1012 hPa 0 mm 0.45 m/s, 242° 0 W/m² -
1787679193 27.22° C 89% 1011.9 hPa 0 mm 0.45 m/s, 233° 0 W/m² -
1787679132 27.22° C 89% 1011.9 hPa 0 mm 1.34 m/s, 230° 0 W/m² -
1787679071 27.22° C 89% 1011.9 hPa 0 mm 2.24 m/s, 199° 0 W/m² -
1787679010 27.22° C 89% 1012 hPa 0 mm 1.79 m/s, 256° 0 W/m² -
1787678950 27.22° C 89% 1011.9 hPa 0 mm 0.89 m/s, 236° 0 W/m² -
1787678888 27.22° C 89% 1012 hPa 0 mm 0.89 m/s, 196° 0 W/m² -
1787678827 27.22° C 89% 1011.9 hPa 0 mm 1.34 m/s, 177° 0 W/m² -
1787678766 27.22° C 89% 1012.1 hPa 0 mm 1.79 m/s, 232° 0 W/m² -
1787678705 27.22° C 89% 1011.8 hPa 0 mm 0 m/s 0 W/m² -
1787678645 27.22° C 89% 1011.8 hPa 0 mm 0.45 m/s, 241° 0 W/m² -
1787678583 27.22° C 89% 1011.9 hPa 0 mm 0.89 m/s, 233° 0 W/m² -
1787678522 27.22° C 89% 1011.8 hPa 0 mm 0.89 m/s, 260° 0 W/m² -
1787678461 27.22° C 88% 1011.9 hPa 0 mm 0.45 m/s, 239° 0 W/m² -
1787678400 27.22° C 88% 1011.8 hPa 0 mm 0.89 m/s, 226° 0 W/m² -
1787678339 27.22° C 88% 1011.8 hPa 0 mm 0 m/s 0 W/m² -
1787678278 27.22° C 88% 1011.9 hPa 0 mm 0.45 m/s, 226° 0 W/m² -
1787678217 27.22° C 88% 1011.8 hPa 0 mm 0.89 m/s, 220° 0 W/m² -
1787678156 27.22° C 88% 1011.7 hPa 0 mm 0.45 m/s, 203° 0 W/m² -
1787678095 27.22° C 88% 1011.9 hPa 0 mm 0.89 m/s, 254° 0 W/m² -
1787678034 27.22° C 88% 1011.9 hPa 0 mm 0 m/s 0 W/m² -

* Rain latest hour (hover to see other rain measurements)
** Current wind speed in m/s (hover to see current wind gust speed)